TimeCST,TemperatureF,Dew PointF,Humidity,Sea Level PressureIn,VisibilityMPH,Wind Direction,Wind SpeedMPH,Gust SpeedMPH,PrecipitationIn,Events,Conditions,WindDirDegrees,DateUTC
12:15 AM,50.0,35.6,58,29.39,10.0,South,21.9,29.9,N/A,,Clear,180,2012-12-03 06:15:00
12:35 AM,50.0,35.6,58,29.39,10.0,South,23.0,31.1,N/A,,Clear,180,2012-12-03 06:35:00
12:55 AM,50.0,35.6,58,29.39,10.0,South,21.9,29.9,N/A,,Clear,180,2012-12-03 06:55:00
1:15 AM,50.0,35.6,58,29.38,10.0,South,21.9,26.5,N/A,,Clear,180,2012-12-03 07:15:00
1:35 AM,50.0,35.6,58,29.38,10.0,South,23.0,28.8,N/A,,Clear,180,2012-12-03 07:35:00
1:55 AM,50.0,35.6,58,29.37,10.0,South,23.0,34.5,N/A,,Clear,180,2012-12-03 07:55:00
2:15 AM,50.0,35.6,58,29.37,10.0,South,25.3,33.4,N/A,,Clear,190,2012-12-03 08:15:00
2:35 AM,50.0,35.6,58,29.37,10.0,South,21.9,31.1,N/A,,Clear,180,2012-12-03 08:35:00
2:55 AM,48.2,35.6,62,29.37,10.0,South,18.4,-,N/A,,Clear,180,2012-12-03 08:55:00
3:15 AM,48.2,35.6,62,29.37,10.0,South,18.4,-,N/A,,Clear,180,2012-12-03 09:15:00
3:35 AM,48.2,35.6,62,29.36,10.0,South,20.7,-,N/A,,Clear,180,2012-12-03 09:35:00
3:55 AM,46.4,35.6,66,29.36,10.0,South,15.0,-,N/A,,Clear,190,2012-12-03 09:55:00
4:15 AM,46.4,35.6,66,29.37,10.0,South,15.0,-,N/A,,Clear,190,2012-12-03 10:15:00
4:35 AM,44.6,35.6,71,29.37,10.0,South,12.7,-,N/A,,Clear,190,2012-12-03 10:35:00
4:55 AM,44.6,35.6,71,29.39,10.0,SSW,12.7,-,N/A,,Clear,200,2012-12-03 10:55:00
5:15 AM,44.6,35.6,71,29.40,10.0,SW,10.4,-,N/A,,Clear,220,2012-12-03 11:15:00
5:35 AM,42.8,35.6,76,29.41,10.0,WSW,11.5,-,N/A,,Clear,240,2012-12-03 11:35:00
6:35 AM,46.4,35.6,66,29.44,10.0,WNW,17.3,21.9,N/A,,Clear,300,2012-12-03 12:35:00
6:55 AM,48.2,37.4,66,29.45,10.0,WNW,19.6,26.5,N/A,,Clear,300,2012-12-03 12:55:00
7:15 AM,48.2,39.2,71,29.46,10.0,NW,19.6,33.4,N/A,,Clear,310,2012-12-03 13:15:00
7:35 AM,48.2,41.0,76,29.48,10.0,WNW,16.1,25.3,N/A,,Clear,300,2012-12-03 13:35:00
7:55 AM,46.4,42.8,87,29.50,10.0,WNW,17.3,26.5,N/A,Rain,Light Rain,300,2012-12-03 13:55:00
8:15 AM,46.4,42.8,87,29.52,10.0,WNW,21.9,29.9,N/A,Rain,Light Rain,300,2012-12-03 14:15:00
8:35 AM,44.6,42.8,93,29.54,8.0,WNW,20.7,29.9,0.01,Rain,Light Rain,290,2012-12-03 14:35:00
9:15 AM,44.6,39.2,81,29.58,7.0,WNW,18.4,-,0.01,Rain,Light Rain,300,2012-12-03 15:15:00
9:35 AM,44.6,39.2,81,29.58,10.0,WNW,16.1,-,0.02,Rain,Light Rain,300,2012-12-03 15:35:00
9:55 AM,44.6,39.2,81,29.60,10.0,WNW,15.0,-,0.02,,Clear,290,2012-12-03 15:55:00
10:15 AM,44.6,37.4,76,29.61,10.0,WNW,18.4,23.0,N/A,,Partly Cloudy,290,2012-12-03 16:15:00
10:35 AM,44.6,37.4,76,29.64,10.0,WNW,18.4,23.0,N/A,,Partly Cloudy,290,2012-12-03 16:35:00
10:55 AM,44.6,35.6,71,29.64,10.0,WNW,18.4,23.0,N/A,,Clear,290,2012-12-03 16:55:00
11:15 AM,46.4,33.8,62,29.66,10.0,WNW,23.0,28.8,N/A,,Clear,290,2012-12-03 17:15:00
11:35 AM,46.4,33.8,62,29.64,10.0,West,27.6,35.7,N/A,,Clear,280,2012-12-03 17:35:00
11:55 AM,48.2,32.0,54,29.64,10.0,West,27.6,39.1,N/A,,Clear,280,2012-12-03 17:55:00
12:15 PM,48.2,32.0,54,29.65,10.0,West,27.6,38.0,N/A,,Clear,280,2012-12-03 18:15:00
12:35 PM,50.0,30.2,47,29.66,10.0,WNW,24.2,35.7,N/A,,Clear,290,2012-12-03 18:35:00
1:15 PM,50.0,28.4,43,29.66,10.0,West,28.8,36.8,N/A,,Clear,280,2012-12-03 19:15:00
1:35 PM,50.0,28.4,43,29.67,10.0,WNW,25.3,33.4,N/A,,Clear,290,2012-12-03 19:35:00
1:55 PM,50.0,28.4,43,29.67,10.0,WNW,27.6,38.0,N/A,,Clear,290,2012-12-03 19:55:00
2:15 PM,50.0,26.6,40,29.69,10.0,West,33.4,40.3,N/A,,Clear,280,2012-12-03 20:15:00
2:35 PM,50.0,26.6,40,29.70,10.0,WNW,27.6,40.3,N/A,,Clear,290,2012-12-03 20:35:00
2:55 PM,50.0,26.6,40,29.70,10.0,West,24.2,34.5,N/A,,Clear,280,2012-12-03 20:55:00
3:15 PM,50.0,26.6,40,29.70,10.0,West,27.6,35.7,N/A,,Clear,280,2012-12-03 21:15:00
3:35 PM,50.0,26.6,40,29.73,10.0,West,20.7,26.5,N/A,,Clear,280,2012-12-03 21:35:00
3:55 PM,48.2,26.6,43,29.73,10.0,West,15.0,23.0,N/A,,Clear,280,2012-12-03 21:55:00
4:15 PM,48.2,26.6,43,29.75,10.0,West,16.1,21.9,N/A,,Clear,270,2012-12-03 22:15:00
4:35 PM,46.4,26.6,46,29.76,10.0,West,12.7,18.4,N/A,,Clear,260,2012-12-03 22:35:00
4:55 PM,44.6,26.6,49,29.77,10.0,WSW,11.5,17.3,N/A,,Clear,250,2012-12-03 22:55:00
5:15 PM,41.0,24.8,53,29.78,10.0,SW,8.1,-,N/A,,Clear,220,2012-12-03 23:15:00
5:35 PM,41.0,26.6,57,29.79,10.0,SW,11.5,-,N/A,,Clear,230,2012-12-03 23:35:00
5:55 PM,41.0,26.6,57,29.80,10.0,WSW,13.8,-,N/A,,Clear,240,2012-12-03 23:55:00
6:15 PM,41.0,26.6,57,29.81,10.0,WSW,13.8,-,N/A,,Clear,240,2012-12-04 00:15:00
6:35 PM,41.0,26.6,57,29.83,10.0,WSW,11.5,-,N/A,,Clear,250,2012-12-04 00:35:00
6:55 PM,41.0,26.6,57,29.84,10.0,West,13.8,18.4,N/A,,Clear,270,2012-12-04 00:55:00
7:15 PM,41.0,26.6,57,29.85,10.0,West,13.8,-,N/A,,Clear,260,2012-12-04 01:15:00
7:35 PM,39.2,26.6,61,29.86,10.0,West,12.7,-,N/A,,Clear,260,2012-12-04 01:35:00
7:55 PM,37.4,26.6,65,29.87,10.0,West,12.7,-,N/A,,Clear,280,2012-12-04 01:55:00
8:15 PM,35.6,26.6,70,29.89,10.0,WNW,11.5,-,N/A,,Clear,300,2012-12-04 02:15:00
8:35 PM,33.8,26.6,75,29.90,10.0,WNW,10.4,-,N/A,,Unknown,300,2012-12-04 02:35:00
8:55 PM,32.0,26.6,80,29.91,10.0,WNW,9.2,-,N/A,,Unknown,290,2012-12-04 02:55:00
9:15 PM,32.0,24.8,75,29.92,10.0,West,11.5,-,N/A,,Unknown,270,2012-12-04 03:15:00
9:35 PM,35.6,24.8,65,29.92,10.0,West,16.1,-,N/A,,Unknown,280,2012-12-04 03:35:00
9:55 PM,33.8,24.8,70,29.92,10.0,West,15.0,-,N/A,,Unknown,280,2012-12-04 03:55:00
10:15 PM,32.0,24.8,75,29.93,10.0,West,15.0,-,N/A,,Unknown,280,2012-12-04 04:15:00
10:35 PM,32.0,24.8,75,29.93,10.0,West,16.1,-,N/A,,Unknown,280,2012-12-04 04:35:00
10:55 PM,32.0,24.8,75,29.94,10.0,WNW,11.5,-,N/A,,Unknown,290,2012-12-04 04:55:00
11:15 PM,30.2,24.8,80,29.95,10.0,WNW,10.4,-,N/A,,Unknown,290,2012-12-04 05:15:00
11:35 PM,28.4,24.8,86,29.96,10.0,West,8.1,-,N/A,,Unknown,280,2012-12-04 05:35:00
11:55 PM,28.4,23.0,80,29.97,10.0,NW,6.9,-,N/A,,Unknown,310,2012-12-04 05:55:00